홈 사이트맵 즐겨찾기
ID/PW찾기  |  회원가입
List of Articles
번호 분류 제목 글쓴이 날짜 조회 수
공지 판매 오늘부터 하루 10개 등록 허용 합니다↓↓↓↓ 소리전자 2017.05.30 3670
공지 판매 계측기장비 장터필수 공지사항 35 소리전자 2005.07.09 86231
176162 판매 KENWOOD PS36-20 20 Volt / 36 Amp / 720 W DC Power Supply newfile 유영애 2020.02.19 0
176161 판매 KENWOOD PU300-5 DC슬림 파워서플라이 newfile 유영애 2020.02.19 0
176160 판매 Kepco BOP 50-2M 100 Watt Power Supply. newfile 박현진 2020.02.19 7
176159 판매 Yokogawa TA720 시간간격/지터 분석기 (N11) new 이명순 2020.02.19 1
176158 판매 Bruel Kjaer 2250 Precision Sound Level Meter Analyzer 소음측정기 newfile 김지현 2020.02.18 3
176157 판매 Voltech PM300 3 Phase Power Analyzer newfile 김지현 2020.02.18 9
176156 판매 Tektronix TAP3500 3.5GHz Active Probe 액티브프로브 newfile 김지현 2020.02.18 6
176155 판매 Met One A2100 0.1um LASER Particle Counter 파티클카운터 newfile 김지현 2020.02.18 0
176154 판매 Agilent 16903A Logic Analysis System 4GHz 102채널 로직아날라이저 newfile 김지현 2020.02.18 8
176153 판매 Agilent HP 8990A Peak Power Analyzer newfile 김지현 2020.02.18 9
176152 판매 Keithley 2306 Dual Channel Battery Charger Simulator newfile 김지현 2020.02.18 9
176151 판매 Keithlet 7001 Switch System 7158 7066모듈 newfile 김지현 2020.02.18 5
176150 판매 Astro Digital Video Signal Generator VG-873 HDMI newfile 김지현 2020.02.18 2
176149 판매 Agilent InfiniiVision DSO7052A 500MHz 오실로스코프 newfile 김지현 2020.02.18 11
176148 판매 EZ GP-4303DU 파워서플라이 newfile 김성진(일산,9406) 2020.02.18 12
176147 판매 Tektronix P6410 로직분석기용 17채널 프로브 (N74) new 이재웅 2020.02.18 4
176146 판매 Hioki 9327 로직 프로브 (N73) new 이재웅 2020.02.18 5
176145 판매 산업용 적외선 온도계(IRCON). new 이시욱 2020.02.18 6
176144 판매 Yokogawa 701932 광대역 전류프로브 (N01) new 이재웅 2020.02.18 6
176143 판매 Hioki 8835 메모리 하이코더/레코더 (N51) new 이재웅 2020.02.18 0
176142 판매 Yokogawa DR230 하이브리드 레코더 (N64) new 이재웅 2020.02.18 7
176141 판매 Nikon CF Plan 100x/0.73 ∞/0 EPI SLWD (현미경 Lens) newfile 이희옥 2020.02.18 19
176140 판매 Agilent 8769k 단극 6-스로우 스위치 (N29) new 이명순 2020.02.18 25
176139 구입 ★ 장비를 찾습니다. ★ newfile 주연전자 2020.02.18 13
176138 판매 ★ Function/Arbitratry Generator 33250A 판매합니다. ★ new 주연전자 2020.02.18 15
176137 판매 ☆★ Agilent E4408B Spectrum analyze 판매합니다 ☆★ new 주연전자 2020.02.18 10
176136 판매 ★ EMC Spectrum Analyzer E7405A 판매합니다 ★ new 주연전자 2020.02.18 5
176135 판매 ※ Signal Generators E4422B 판매합니다. ※ newfile 주연전자 2020.02.18 8
176134 인하 심슨 멀티메터 467, Simpson Model 467 군용버전 - 인하 new 김승현 2020.02.18 63
176133 판매 HP 11765S 베이스밴드 신호 발생기 (N68) new 이명순 2020.02.18 17
Board Pagination Prev 1 2 3 4 5 6 7 8 9 10 ... 5873 Next
/ 5873
회사소개 제휴문의 이용약관 개인정보취급방침 이메일주소무단수집거부 사이트맵